User: anonymous   Login
Location: Bishausen
(51.6334°N, 9.9631°E)
Time: 17:32:49
(UTC+00:00)
Language:

Cosmos 1300 Rocket - Orbit

View from above orbital plane
View from above orbital plane
View from above satellite
View from above satellite

Ground track
Ground track

The orbit data is extracted from the following two-line orbital elements,

1 12786U 81082B   24205.10508656  .00001112  00000-0  12426-3 0  9990
2 12786  82.4866  42.8372 0016506 336.9919  23.0556 14.86005606319611
Epoch (UTC): 23 July 2024 02:31:19
Eccentricity: 0.0016506
inclination: 82.4866°
perigee height: 599 km
apogee height: 622 km
right ascension of ascending node: 42.8372°
argument of perigee: 336.9919°
revolutions per day: 14.86005606
mean anomaly at epoch: 23.0556°
orbit number at epoch: 31961

The dashed part of the orbit path shows where the satellite is in the earth's shadow,  

DLR